Theta_e
304 304 304 304 304 304 304 304 304 304 304 301 298 300 290 288 283 298 302 302 299 291 283 287 285 285 288 292 291 292 291 290 291 290 293 291 295 295 292 292 291 293 292 292 291 291 287 285 283 286 287 288 290 291 293 294 294 293 287 291 290 305 288 285 287 288 290 292 294 295 294 293 290 290 289 288 285 286 283 279 282 282 284 282 280 282 287
304 304 304 304 304 304 305 304 304 304 304 300 300 295 291 290 289 292 301 303 300 289 280 281 282 286 289 290 289 293 291 290 290 291 292 291 292 292 293 293 294 291 295 293 291 294 281 290 286 285 287 286 293 292 292 294 292 291 288 288 295 287 288 287 281 281 284 287 289 290 292 292 287 285 288 289 288 289 287 287 286 283 284 285 283 280 285
304 304 304 304 304 304 304 304 304 304 304 304 299 292 293 292 295 292 294 302 299 287 289 287 284 287 287 288 288 289 291 293 293 293 291 294 292 293 291 292 295 293 295 293 293 294 290 285 291 291 290 290 294 293 292 294 292 295 296 305 296 288 285 285 281 277 275 276 278 279 280 284 286 289 289 290 290 288 287 283 283 281 283 286 283 283 290
304 304 304 304 304 304 304 304 304 304 304 304 300 294 292 289 282 289 292 295 296 293 294 291 288 286 286 285 287 290 289 293 295 295 294 295 295 293 292 293 295 295 294 292 292 292 294 290 288 290 290 294 294 294 294 293 294 299 308 306 296 288 291 287 284 283 281 280 280 286 287 287 285 288 289 290 290 290 288 283 281 282 282 283 287 290 291
303 303 304 303 303 304 304 304 303 303 303 303 299 295 292 289 281 284 284 292 292 290 292 290 291 285 290 283 289 287 289 291 292 299 290 296 295 296 293 295 292 291 291 289 290 292 292 294 292 292 293 295 296 296 294 294 297 306 305 305 294 291 287 290 289 289 288 289 290 292 291 288 288 288 289 289 289 289 287 283 283 284 286 281 291 294 292
303 303 303 303 303 303 303 304 303 303 303 304 301 291 295 284 286 291 293 287 283 285 286 290 289 290 290 286 291 288 288 290 287 294 295 296 298 291 293 294 294 293 292 291 284 288 290 290 286 294 295 294 297 293 293 292 300 305 299 302 294 288 285 290 292 292 293 294 294 295 294 290 289 289 289 289 288 288 287 285 286 289 284 284 292 295 293
303 303 303 303 303 303 303 303 303 303 302 303 300 292 295 293 291 292 297 287 288 288 290 293 292 290 291 286 290 288 288 287 292 291 291 294 293 296 283 290 295 295 295 291 286 289 283 283 290 293 293 293 293 291 293 296 298 299 297 297 294 291 285 293 294 293 294 295 295 295 294 293 294 293 293 290 289 288 289 289 290 288 285 292 294 295 293
303 303 303 303 303 303 303 303 304 303 302 301 297 297 293 292 290 289 294 293 290 291 291 291 290 286 292 285 288 290 289 287 291 294 291 285 290 296 291 293 295 296 294 292 287 290 292 290 286 293 294 290 294 292 293 293 296 297 295 296 294 292 285 295 291 288 292 294 295 295 294 293 290 292 293 292 291 291 291 291 292 294 293 294 294 293 291
303 303 303 303 303 303 303 303 304 303 303 295 295 297 301 299 300 298 291 285 286 290 288 288 287 284 285 284 287 290 291 290 292 291 295 291 289 293 291 293 294 297 296 293 293 295 294 295 295 296 296 290 297 292 293 297 293 294 294 294 295 295 288 292 288 285 286 292 292 292 293 292 291 289 290 290 289 289 289 288 291 292 291 293 293 289 289
303 303 303 303 303 303 303 303 304 303 303 294 294 292 298 298 303 301 294 286 292 288 289 287 283 282 286 290 290 290 291 293 293 284 289 294 295 294 295 294 292 292 292 293 295 298 298 299 300 300 302 301 301 301 299 298 295 293 294 293 290 290 288 283 283 284 284 290 290 289 288 288 285 284 288 290 288 289 290 291 293 296 296 291 288 290 295
303 303 303 303 303 303 303 303 304 304 301 295 293 293 295 295 294 297 295 286 286 291 289 287 285 290 292 293 292 294 292 292 292 286 285 294 294 297 296 294 291 288 290 295 303 304 303 303 302 303 304 302 300 300 301 301 300 298 296 291 289 291 291 285 285 284 282 286 287 287 283 278 281 289 293 292 289 289 290 289 293 293 293 291 295 295 296
303 303 303 303 303 303 304 304 304 304 303 301 300 296 298 300 299 298 287 284 285 291 288 286 287 290 291 293 293 292 292 291 291 294 289 291 294 296 295 295 294 285 297 305 304 303 305 305 303 302 303 301 300 301 301 299 300 300 298 293 289 289 288 284 283 283 283 282 284 283 279 279 288 292 293 293 292 291 290 289 289 289 292 294 294 295 296
302 303 303 303 303 303 303 304 304 304 305 304 301 296 300 302 297 295 293 288 285 289 287 289 294 294 295 294 294 294 295 295 295 294 294 292 292 294 296 295 294 296 304 303 304 303 298 294 294 297 298 298 298 299 299 298 299 300 299 298 292 287 287 283 283 281 281 280 280 279 278 288 292 292 293 294 294 292 293 289 290 290 291 295 294 295 296
302 302 303 303 303 303 304 304 304 304 305 305 301 300 301 301 296 295 294 288 287 290 290 291 293 294 294 294 295 296 297 295 295 295 292 294 293 294 298 301 301 303 305 305 299 295 289 287 285 287 290 291 290 289 295 298 298 297 297 297 296 292 288 287 284 283 281 281 282 283 289 290 290 288 289 289 287 288 287 285 284 290 291 295 295 295 296
302 302 303 303 303 303 303 304 304 304 305 306 303 301 300 301 301 298 300 295 287 289 290 285 290 294 295 295 296 295 294 293 293 290 298 298 295 298 300 304 303 303 303 301 295 292 287 285 284 283 284 284 280 282 293 289 297 298 297 296 295 292 289 287 286 281 282 282 281 284 284 282 286 291 294 295 295 293 292 288 285 293 293 295 296 295 295
302 302 302 303 303 303 303 304 304 305 305 306 302 300 300 303 304 302 299 294 290 285 288 294 297 296 295 296 297 294 291 289 292 293 293 294 297 300 301 302 303 302 302 300 293 288 285 284 283 283 282 282 286 286 283 290 288 297 296 296 295 294 292 288 286 282 282 280 280 280 279 282 288 293 295 295 295 295 294 289 284 290 294 296 297 295 295
301 302 302 302 303 303 304 304 304 305 305 305 302 301 299 303 302 301 297 296 295 287 296 298 298 297 296 295 296 293 296 290 293 285 284 286 293 298 299 301 301 301 301 295 293 286 285 285 284 284 285 286 284 284 288 286 284 286 292 293 293 290 285 286 285 281 280 281 279 278 280 281 288 294 296 297 297 297 291 283 284 290 294 296 296 295 294
301 302 302 302 303 303 303 304 304 305 305 305 303 300 300 303 304 304 300 297 290 290 296 299 298 295 293 294 294 297 300 299 297 294 289 291 292 293 298 298 296 301 303 291 289 283 283 282 283 282 282 290 290 290 282 287 282 282 284 285 284 286 285 285 284 283 282 283 280 280 282 287 291 296 298 297 298 292 284 281 283 293 295 296 296 295 295
301 301 302 302 302 303 303 304 304 305 305 305 304 302 301 303 304 304 302 298 296 288 297 302 302 299 301 303 301 303 302 300 297 287 283 284 289 297 298 299 299 290 297 288 287 284 282 285 290 286 283 285 291 283 289 285 283 289 289 284 284 283 284 284 284 284 283 281 282 281 282 286 294 297 297 297 293 284 283 286 292 295 295 296 297 295 295
301 301 301 302 302 303 303 304 304 305 305 305 304 298 300 303 305 306 301 296 297 295 299 300 301 299 303 300 295 296 298 299 297 290 287 283 294 298 288 288 292 294 290 288 284 288 282 283 284 289 282 282 286 291 285 286 292 288 288 290 284 286 283 283 283 282 282 280 280 280 280 287 298 297 296 296 287 284 287 291 294 297 296 295 295 295 294
301 301 301 301 302 303 303 304 304 305 305 305 304 299 298 302 304 305 306 303 298 292 294 302 304 303 303 302 303 301 300 295 296 294 295 293 295 289 283 284 287 291 287 284 285 284 284 285 286 284 287 287 289 289 283 285 291 296 293 289 288 291 285 283 283 284 283 280 280 281 286 289 298 298 289 293 291 292 293 295 292 295 296 295 295 294 295
300 301 301 301 302 303 303 304 304 304 305 305 304 301 297 302 306 309 308 306 298 293 295 302 305 304 306 307 307 305 306 304 304 304 299 292 297 294 292 296 296 296 296 293 287 287 289 286 289 287 286 288 289 282 286 283 284 289 297 293 285 290 287 287 286 286 283 282 283 289 291 293 294 294 293 293 295 295 296 295 295 294 294 296 294 294 294
300 300 301 301 302 303 303 304 304 304 305 306 303 298 296 299 299 304 308 302 304 303 304 303 305 304 306 307 307 305 305 308 307 306 305 299 289 297 297 297 295 301 300 298 289 288 289 288 284 290 288 288 286 284 287 282 282 286 285 294 290 293 292 291 290 287 291 292 291 293 292 293 293 295 295 294 294 294 295 295 293 294 294 295 294 294 294
300 300 300 301 302 303 303 304 304 305 305 305 304 300 298 299 300 301 305 304 297 293 296 298 297 290 294 297 301 303 304 303 309 309 310 304 292 290 298 300 304 302 298 298 299 293 291 289 293 294 285 289 291 283 282 282 281 286 287 286 290 294 295 290 287 290 286 283 290 291 291 293 294 294 294 295 295 295 295 295 295 294 295 295 295 294 294
300 300 300 301 302 303 303 304 304 305 305 305 304 303 302 300 301 301 299 291 288 290 288 290 290 301 302 301 300 301 304 306 307 310 309 305 300 295 294 302 302 297 295 296 300 296 290 288 291 289 286 293 292 284 289 285 286 292 283 286 288 289 295 290 289 288 283 285 290 291 293 293 294 294 293 293 294 294 295 295 295 295 296 295 295 295 295
299 300 300 301 301 303 303 304 304 304 305 305 305 299 296 298 302 303 301 301 298 294 289 284 293 302 306 305 301 300 305 305 304 304 307 308 306 305 303 303 303 305 303 300 298 289 287 288 286 287 288 290 294 286 286 290 290 291 286 285 290 291 293 285 288 285 289 292 291 292 293 293 293 293 294 294 295 294 294 295 295 295 294 294 295 296 295
299 300 300 301 301 302 303 304 304 304 304 305 303 300 299 299 302 301 300 299 292 284 285 285 289 299 303 301 304 301 303 303 303 302 302 303 304 304 302 301 301 298 297 294 293 289 286 286 286 288 288 291 293 290 291 291 290 285 285 292 294 291 284 290 290 287 287 287 290 293 287 285 290 291 293 294 295 295 294 294 294 294 294 294 294 294 296
299 300 300 301 302 302 303 304 304 304 304 305 304 299 300 300 302 305 305 300 294 286 286 286 290 297 302 298 301 298 301 302 301 301 300 301 302 300 299 298 296 295 293 288 289 288 283 287 290 286 286 289 287 289 291 291 289 286 288 289 292 289 291 290 287 287 287 291 294 293 292 292 292 293 294 295 295 295 293 293 293 294 295 295 294 294 294
299 300 300 301 302 302 303 304 304 303 304 304 299 300 302 303 305 306 304 304 300 297 291 289 293 291 289 294 300 297 298 301 302 301 299 299 300 298 297 297 295 295 292 287 285 284 284 289 285 288 289 293 290 288 285 285 282 283 287 292 292 292 296 294 293 292 293 296 295 295 294 291 292 294 295 295 295 295 294 294 294 294 294 295 295 295 294
299 300 301 301 302 303 303 303 304 304 304 300 297 293 287 297 305 302 302 303 301 299 292 288 286 285 294 298 296 297 298 301 300 301 300 298 297 297 297 295 294 295 293 288 284 286 287 286 284 288 295 294 289 285 282 283 282 287 291 293 295 295 295 295 296 295 293 295 295 296 295 295 295 295 296 296 296 296 294 294 294 294 295 295 295 295 296
299 300 301 302 302 303 303 304 304 304 303 296 294 285 284 284 293 304 303 301 300 299 288 288 289 288 289 294 297 296 297 300 299 298 298 298 297 297 297 295 294 292 286 285 286 288 285 285 285 289 292 293 285 283 283 280 282 284 291 292 293 295 294 294 294 296 296 296 296 296 296 295 295 295 295 295 295 295 295 295 296 297 296 296 296 296 296
300 300 301 302 302 303 303 304 304 304 300 295 291 290 290 293 295 301 302 302 301 301 291 288 284 283 285 286 294 298 299 300 302 299 293 297 297 296 296 296 292 294 291 287 287 284 287 286 285 289 290 293 288 283 282 281 282 284 290 291 293 294 295 296 296 296 297 297 296 294 293 293 295 293 291 293 294 295 295 295 296 296 297 297 297 297 297
300 300 301 301 302 303 303 304 304 303 300 301 303 303 303 304 304 303 304 301 301 293 292 286 283 284 284 287 294 297 299 293 293 293 291 293 297 293 290 293 292 290 297 289 285 284 287 284 283 285 291 289 284 283 281 281 284 290 291 292 293 295 295 296 296 296 297 297 297 292 291 292 292 294 295 294 295 295 295 296 297 297 297 297 296 296 296
300 300 301 301 302 303 304 304 304 304 302 301 295 297 305 306 305 305 301 300 298 294 290 286 284 284 285 289 290 290 296 290 290 289 285 290 295 290 290 289 288 287 290 288 287 286 287 283 286 285 283 286 282 284 282 286 290 291 291 292 293 294 295 295 295 295 295 295 295 296 295 295 296 296 295 295 294 296 297 297 297 296 295 296 296 296 293
300 300 300 302 303 304 304 304 299 297 293 294 296 298 302 308 306 306 305 299 290 285 286 286 286 284 282 282 281 285 296 291 289 289 286 288 293 293 289 285 284 284 288 290 284 285 284 287 287 283 286 283 281 282 281 288 290 290 291 292 293 294 294 293 292 293 294 296 296 296 296 296 295 294 294 295 295 296 296 296 296 295 295 295 294 292 292
299 300 301 302 303 304 300 301 297 295 294 294 295 303 307 307 307 302 299 303 296 289 286 283 285 283 283 281 280 285 294 290 289 291 290 285 286 291 288 284 283 287 289 285 285 283 284 290 284 284 279 281 282 282 287 290 290 290 291 292 292 294 294 294 293 294 296 297 297 296 296 295 295 294 295 296 296 296 296 296 296 295 294 292 291 291 291
299 300 302 303 301 297 294 291 297 299 297 301 303 306 306 307 304 305 302 302 303 300 290 283 286 285 286 283 282 284 289 283 285 284 282 283 284 283 284 282 284 284 282 281 282 284 289 290 284 280 281 281 283 287 291 292 292 291 291 293 294 294 294 294 295 295 295 296 297 296 295 294 294 295 296 296 296 296 296 295 294 292 291 290 290 290 290
299 301 298 295 293 288 286 287 297 301 304 304 304 298 292 295 288 284 287 289 290 300 289 292 286 287 288 287 283 288 290 284 284 283 282 283 283 283 282 283 284 283 281 282 285 291 283 281 281 281 283 287 288 290 291 292 292 293 293 294 295 296 295 295 295 295 293 292 293 294 294 294 294 295 295 295 296 295 295 294 292 292 292 291 291 290 289
298 295 294 293 290 285 286 294 301 303 300 301 299 289 285 286 285 284 283 286 287 289 286 290 285 287 287 285 283 288 291 287 283 280 282 285 283 280 282 281 283 282 280 281 282 286 282 282 280 279 282 285 287 291 293 294 294 295 296 296 296 295 295 295 296 295 294 294 294 295 295 294 293 293 294 294 295 294 292 292 292 292 291 291 290 289 289
291 288 286 286 286 288 296 299 301 298 297 290 287 286 284 284 284 281 282 284 283 283 284 285 285 286 289 288 286 284 288 287 282 283 281 282 286 282 282 282 283 281 279 276 280 284 280 278 280 279 280 282 286 291 292 293 294 295 296 296 297 297 298 297 297 297 296 295 295 294 295 295 295 294 293 293 292 291 291 292 292 292 291 290 289 289 288
288 287 286 284 288 291 293 295 296 296 289 284 285 284 283 282 283 284 283 280 280 282 284 285 286 288 288 289 285 284 287 293 289 287 281 281 286 284 280 280 283 279 276 277 282 283 280 278 279 279 282 284 288 291 291 292 293 293 295 296 297 298 298 298 298 297 296 296 296 295 296 295 294 293 293 292 292 291 291 291 291 291 290 289 288 289 289
288 288 289 293 293 294 294 293 291 286 285 286 282 280 281 281 282 284 282 280 280 280 283 287 285 286 288 289 288 288 286 291 288 283 283 282 283 282 280 280 281 277 275 278 281 281 278 275 277 277 280 287 290 291 292 292 291 294 295 296 297 298 298 297 296 296 296 296 295 295 295 293 292 292 292 291 291 291 291 291 291 290 290 290 290 289 289
297 297 296 293 292 288 289 286 286 284 280 280 277 278 280 281 280 280 280 282 284 284 284 291 290 290 293 291 290 289 287 290 287 285 282 281 282 282 279 278 278 278 279 280 280 278 276 274 275 277 285 289 291 291 292 293 292 293 294 296 297 298 297 295 294 294 295 295 294 294 293 292 291 292 292 293 292 292 292 291 291 291 291 290 291 290 290
293 295 293 290 289 288 286 280 285 284 281 281 278 277 278 279 281 280 280 279 281 283 285 287 285 288 285 285 286 284 286 288 286 283 282 282 282 278 277 277 278 280 281 279 277 276 274 276 279 282 288 290 292 291 292 292 292 292 293 294 295 295 295 294 294 293 293 294 294 293 292 292 291 292 293 292 292 291 291 291 291 291 291 291 291 291 291
287 286 288 286 283 284 282 274 283 281 278 279 282 280 280 277 276 276 280 282 286 284 286 287 288 288 283 285 286 286 285 284 284 282 280 281 279 279 278 277 279 279 277 275 275 275 279 278 282 286 289 290 291 292 292 292 292 293 293 293 293 293 293 294 294 294 293 293 293 293 293 292 293 292 292 292 292 293 292 291 291 291 291 292 291 291 290
286 285 284 279 276 278 280 277 279 278 281 283 282 280 281 282 281 281 286 287 287 288 287 287 288 287 286 286 285 284 283 282 282 281 282 281 278 278 280 282 280 275 274 274 274 273 273 278 283 287 291 292 292 292 293 293 293 293 293 293 293 293 293 293 293 294 293 292 292 292 291 292 292 291 292 292 292 292 292 292 292 292 292 291 291 291 291
286 286 286 283 278 280 282 278 277 280 282 283 283 284 285 286 286 287 286 289 288 289 289 288 289 288 286 283 285 285 284 283 281 282 281 278 278 279 282 279 276 274 273 271 271 271 275 279 284 288 290 291 292 293 293 293 293 293 293 293 292 292 292 293 292 292 291 291 291 291 291 291 291 291 291 291 291 292 292 292 292 292 292 292 292 292 291
284 286 286 278 275 279 280 280 280 281 283 286 285 287 287 287 286 287 289 289 290 290 291 289 287 286 286 284 284 282 282 282 281 281 281 282 281 277 274 273 273 275 274 273 271 273 276 279 287 288 290 292 293 293 293 292 292 293 293 292 292 291 291 291 291 292 291 291 291 291 290 291 291 291 291 291 291 291 292 293 292 292 293 292 292 292 292
287 285 282 280 282 283 281 280 281 281 281 283 284 284 285 285 285 287 289 288 289 290 292 290 285 284 283 282 283 283 282 282 279 279 282 278 276 273 272 271 271 271 272 276 274 275 280 286 289 290 290 292 293 294 293 293 293 293 293 293 292 291 291 291 291 291 291 292 291 291 291 291 291 291 291 291 291 291 292 293 292 292 292 292 292 292 292
285 282 284 283 282 282 282 281 281 280 281 283 284 283 283 283 285 288 289 289 290 291 290 288 286 284 284 282 281 280 281 281 280 281 278 276 275 276 275 272 271 272 271 275 277 279 282 288 290 290 291 291 292 293 293 292 291 293 293 293 292 291 291 291 291 290 291 291 291 291 291 291 291 291 291 292 292 292 292 292 292 292 291 292 293 292 292
285 284 282 282 283 281 282 279 278 280 282 283 282 283 283 285 286 288 292 293 291 285 285 285 284 283 282 280 279 278 279 283 281 279 277 276 278 276 274 272 271 275 278 279 282 284 287 290 291 291 291 291 292 293 293 292 292 293 293 292 292 291 291 291 291 291 291 291 291 289 291 292 292 292 293 293 292 292 292 291 292 292 291 291 292 293 293
282 280 280 281 282 283 284 283 283 283 284 285 283 283 285 285 288 291 294 292 288 286 284 284 284 281 278 278 278 281 283 281 280 279 279 279 279 277 274 275 280 281 282 282 286 287 288 291 292 291 292 292 291 292 292 292 292 292 292 292 291 291 291 291 291 291 291 291 291 291 292 292 292 292 292 292 292 291 291 290 291 291 291 291 292 294 294
Wind_Speed
17 17 17 17 17 17 16 16 16 15 12 2 2 2 1 2 1 2 0 3 7 2 1 2 2 3 2 4 8 8 9 10 10 11 8 8 3 2 2 4 0 3 1 3 2 2 1 4 5 3 6 8 15 6 13 11 12 8 3 5 3 4 1 2 2 1 3 3 4 4 6 7 3 2 3 4 3 5 6 3 6 6 4 3 0 2 1
17 17 17 17 18 17 17 17 17 15 14 5 4 1 1 1 1 2 0 2 2 3 0 1 2 3 5 6 10 9 10 10 10 8 9 4 4 2 2 4 5 4 0 0 2 0 2 1 5 3 4 6 14 11 9 14 10 10 5 7 6 5 2 5 2 1 1 1 1 2 1 3 3 3 2 4 3 4 4 5 1 5 6 8 8 5 3
16 17 17 17 16 17 16 16 13 12 12 9 3 2 2 1 0 1 2 1 1 3 1 3 3 4 5 6 9 8 4 3 7 9 11 8 6 2 3 3 2 1 1 1 3 2 5 0 1 1 2 3 5 17 12 14 11 11 7 8 6 5 3 5 4 5 7 6 9 9 6 7 1 3 4 4 6 5 3 5 1 5 2 4 4 3 1
17 17 18 17 16 15 15 13 12 11 12 10 1 1 1 0 3 2 2 1 1 4 4 4 4 5 6 5 7 5 4 4 7 8 11 11 10 7 5 10 2 0 2 3 1 1 2 2 1 2 2 2 4 10 17 13 12 12 12 9 8 3 2 2 6 8 8 7 3 5 7 3 5 3 6 3 3 5 4 6 6 8 4 5 2 12 13
17 17 18 18 17 15 14 13 12 11 8 9 0 2 1 1 2 2 2 1 4 6 3 4 3 4 2 3 3 6 8 7 8 1 2 2 2 2 5 1 0 1 3 1 2 2 2 2 3 3 3 4 4 9 15 14 18 14 10 10 5 3 5 3 8 5 6 6 3 2 8 7 5 4 3 4 5 5 6 7 8 7 11 4 2 16 20
18 18 18 18 17 16 16 14 14 13 14 8 2 1 1 2 2 0 3 2 2 3 5 7 9 10 8 6 3 8 8 3 3 6 5 7 3 3 5 5 3 5 4 1 0 4 2 3 3 5 2 5 9 7 6 11 15 13 5 8 5 6 5 4 3 3 6 2 3 4 5 3 1 0 3 6 5 6 5 6 4 12 8 9 13 15 20
19 18 18 18 19 17 16 16 15 16 18 6 3 1 1 3 2 2 2 0 2 5 4 4 7 7 5 3 2 3 4 6 2 2 5 7 3 3 1 4 8 7 4 4 0 3 2 3 3 4 5 3 5 6 4 3 3 10 3 7 3 5 0 3 3 5 7 6 6 6 12 4 8 7 5 4 3 5 5 4 4 1 4 14 21 11 5
19 18 18 18 19 18 17 17 16 15 18 4 1 1 1 2 1 3 3 2 3 2 2 2 1 3 3 2 3 2 2 2 6 4 3 4 5 4 2 6 4 4 3 2 2 1 1 1 1 2 1 5 1 2 2 5 6 3 6 6 1 6 2 5 4 5 4 5 8 10 10 9 8 9 11 10 10 11 6 6 8 16 14 15 17 15 11
19 18 19 19 20 18 17 17 15 13 13 3 2 2 2 2 1 1 3 3 3 1 2 2 0 2 2 2 4 2 2 2 5 6 3 4 3 2 3 5 5 1 0 0 1 4 3 1 2 2 2 2 2 1 4 2 1 3 2 1 0 5 2 2 4 7 2 5 7 8 12 13 11 7 11 11 6 9 2 6 2 7 12 16 16 14 8
19 18 19 20 19 18 17 16 14 11 9 1 2 1 2 3 2 1 1 2 2 2 2 3 2 2 2 1 1 1 4 5 4 5 5 3 6 4 3 4 3 4 2 3 4 3 2 2 3 3 4 3 3 7 6 5 2 0 2 1 3 3 5 3 5 8 0 3 2 6 7 7 5 4 4 5 2 2 4 4 5 11 23 15 13 12 12
19 18 18 19 19 18 17 16 14 11 4 3 2 2 3 3 4 2 2 1 3 2 4 2 1 3 3 2 5 5 4 4 2 2 3 3 5 0 4 4 3 5 3 5 4 2 3 3 3 0 2 2 0 1 5 11 9 5 1 2 2 2 9 4 1 6 3 3 2 1 6 2 2 3 3 3 2 2 10 5 9 5 3 3 3 15 15
20 19 18 19 20 19 17 16 15 13 4 1 1 3 2 3 4 2 1 2 2 1 0 3 4 4 4 7 5 7 8 7 5 3 7 4 9 10 7 6 1 2 4 2 2 2 5 3 1 1 3 2 5 13 15 14 14 11 5 6 3 5 7 3 2 6 2 1 2 7 2 3 2 4 5 2 5 6 15 11 9 3 6 13 18 17 18
20 19 19 18 19 19 18 16 15 14 9 2 2 3 2 1 2 3 2 2 3 2 4 4 4 7 9 10 9 9 10 9 7 7 8 6 6 4 3 3 3 6 1 3 2 2 3 2 2 1 1 3 3 13 17 14 14 13 9 5 6 6 8 5 5 2 2 3 2 4 2 2 2 4 4 7 8 2 18 9 8 5 3 14 15 16 16
21 20 19 19 19 18 17 16 15 14 12 7 4 3 2 1 2 2 2 2 5 2 3 7 6 5 6 8 8 6 6 6 6 6 5 6 8 8 6 4 7 4 1 1 3 2 2 5 2 5 7 7 5 5 3 5 10 12 11 8 6 6 6 6 5 2 5 2 5 3 1 1 2 2 2 4 5 3 1 9 3 3 2 11 17 16 16
21 21 20 20 19 19 18 17 16 14 12 9 3 3 3 3 3 3 2 2 4 6 2 3 3 5 6 8 8 3 3 4 4 1 3 1 2 4 5 5 3 3 3 2 3 4 1 2 4 3 3 4 0 2 2 3 5 7 6 4 8 3 6 3 8 1 4 7 5 2 1 4 7 7 3 4 2 3 4 6 1 2 2 6 18 19 18
21 21 21 20 19 19 19 17 16 14 13 11 4 4 5 4 4 5 4 1 2 5 5 9 4 3 4 6 9 4 3 3 4 2 2 2 3 3 4 5 4 2 1 1 1 2 1 2 2 4 1 2 1 1 1 0 2 4 5 6 10 9 9 6 9 5 3 3 6 4 6 6 5 13 7 4 4 8 6 5 2 4 5 8 14 18 17
21 22 21 21 20 20 19 18 17 14 12 11 5 4 5 2 3 3 2 2 3 7 8 4 4 1 1 4 4 4 3 2 1 1 2 4 3 3 7 4 2 2 1 1 1 1 3 4 2 4 1 1 3 2 0 2 1 2 9 6 12 10 5 5 7 4 2 5 4 3 2 1 2 7 4 7 6 1 2 2 7 12 12 11 14 19 19
21 21 21 21 21 20 20 19 18 15 12 11 5 5 5 2 3 2 3 3 2 5 5 2 3 1 1 4 1 2 1 3 1 0 1 2 3 4 3 3 2 1 4 3 0 4 2 2 3 2 2 1 1 1 1 1 1 1 1 1 2 4 4 5 7 6 3 6 0 1 3 2 2 6 5 6 4 4 3 10 4 13 16 13 13 15 15
22 22 22 22 21 21 21 20 19 17 15 12 6 6 6 6 5 4 3 3 3 5 9 6 8 6 5 3 2 2 3 2 1 1 2 5 3 4 4 5 1 0 3 2 3 2 2 0 0 2 4 1 0 2 1 2 1 0 0 3 3 2 3 1 3 5 5 1 5 4 3 5 5 4 9 7 5 5 9 5 4 18 17 15 15 16 15
22 22 22 22 22 22 21 21 20 18 16 14 7 5 9 7 6 6 5 3 2 7 13 11 2 5 2 4 3 2 1 2 1 1 2 3 4 2 4 2 3 2 2 3 2 0 3 2 1 1 2 2 2 3 2 1 1 2 1 1 3 5 4 1 3 2 2 2 3 2 1 2 8 9 3 2 3 4 4 4 6 14 18 18 14 14 14
23 23 22 22 22 22 22 22 21 19 17 14 7 6 7 3 4 7 7 5 3 6 9 3 2 12 8 6 7 5 6 3 2 2 5 5 3 3 1 2 2 1 1 2 4 1 2 1 2 1 2 4 1 2 5 3 1 0 2 2 2 2 5 1 1 3 5 2 4 4 3 2 6 10 7 5 3 5 7 10 11 7 12 13 13 12 13
23 23 23 22 22 21 21 20 20 19 17 15 10 3 5 6 4 3 6 6 5 5 8 13 9 12 15 12 11 8 10 10 11 6 2 1 2 1 2 1 1 1 1 2 2 1 1 1 1 1 2 1 2 2 3 4 4 1 1 3 2 3 3 5 7 1 2 3 3 2 2 2 1 3 3 2 2 8 9 11 16 15 10 9 11 14 12
24 24 23 24 23 22 21 20 20 18 17 15 8 2 5 7 6 5 0 5 5 6 7 10 10 8 7 6 5 4 1 4 6 4 6 5 1 2 3 0 2 1 0 1 3 5 3 4 1 4 2 1 6 3 2 1 3 1 3 1 1 2 1 1 7 1 3 1 0 1 3 4 6 6 3 10 7 4 9 12 11 7 10 10 12 12 12
24 24 24 25 23 23 23 22 20 18 16 14 7 5 7 5 6 5 2 3 1 6 6 2 3 6 4 5 6 7 5 3 4 5 2 5 1 2 3 2 0 1 1 4 4 2 3 2 2 1 1 3 5 3 4 0 2 3 3 1 1 1 1 1 5 4 3 1 2 3 3 3 7 9 6 7 4 6 8 9 10 12 12 11 10 11 11
24 25 25 25 24 24 24 23 22 19 17 16 11 6 6 6 4 5 2 0 1 1 1 8 6 8 3 6 4 2 2 2 2 4 4 2 3 2 3 9 4 3 4 3 0 2 1 2 1 1 2 1 5 1 2 5 0 3 3 1 2 1 3 7 3 4 2 3 2 2 3 3 3 7 9 8 8 7 6 8 9 11 11 11 12 13 13
25 25 25 25 25 25 25 24 24 21 18 17 13 6 4 5 1 3 1 3 1 1 1 4 8 9 5 9 5 4 4 5 5 5 1 2 3 3 5 3 3 1 0 1 2 4 3 2 2 1 4 0 2 3 2 3 6 3 5 6 5 3 3 4 2 5 3 5 3 5 7 7 4 4 4 7 9 11 10 11 12 13 15 14 11 10 12
26 26 26 25 26 25 25 24 23 22 22 18 10 5 6 5 5 5 4 3 1 2 1 3 6 9 7 8 6 4 3 4 5 5 6 8 5 3 3 2 1 3 3 2 2 3 3 2 4 1 1 1 2 2 3 4 4 3 2 0 1 5 3 4 9 8 6 8 11 12 10 4 3 4 7 8 8 11 13 12 13 14 15 15 15 13 11
26 26 26 25 25 25 24 24 22 22 21 22 11 5 6 5 6 8 7 4 1 2 3 4 5 9 8 4 4 3 6 3 4 5 5 6 8 7 6 4 3 3 3 1 2 4 3 6 2 1 0 1 5 3 2 1 3 5 4 1 1 5 6 7 8 9 9 5 8 1 6 8 5 8 7 9 10 12 14 14 14 14 13 14 16 16 14
26 27 26 26 25 25 24 24 22 20 21 18 11 4 2 5 6 3 2 1 4 1 1 4 4 3 1 4 4 1 4 3 4 4 4 6 6 7 5 5 4 1 3 5 3 2 3 0 1 2 1 2 6 2 3 3 3 2 1 4 2 3 8 7 6 5 4 5 6 5 9 10 7 8 9 9 10 12 12 11 12 13 13 13 13 13 15
26 27 27 26 25 25 25 23 21 18 17 10 5 3 2 1 2 3 0 2 3 2 1 2 4 3 4 2 4 3 1 3 5 4 5 5 5 5 4 4 4 3 3 2 2 4 0 1 1 2 3 2 2 2 3 1 3 1 4 6 3 4 4 1 2 6 7 4 5 7 11 11 9 10 9 9 10 13 12 12 12 13 12 12 14 13 12
27 27 26 26 25 25 25 24 21 18 12 4 2 2 3 2 3 2 3 5 2 2 1 1 5 4 4 3 1 5 3 0 1 1 3 3 2 1 2 3 3 3 5 4 5 0 2 4 1 4 3 4 4 2 3 3 1 1 3 6 0 6 4 4 4 6 12 10 10 10 11 10 8 9 7 9 8 11 12 10 11 12 12 12 13 13 13
27 27 26 26 26 25 24 24 21 15 4 1 1 2 3 4 2 4 4 4 1 2 1 2 4 4 2 4 3 1 1 0 0 1 2 2 2 4 4 4 0 1 3 1 1 3 3 0 2 2 2 3 6 3 3 3 4 2 2 3 3 5 7 9 9 8 11 14 16 13 10 6 9 12 7 6 9 10 13 12 11 11 13 11 12 11 11
27 27 27 26 27 26 24 22 21 12 7 10 14 17 21 24 23 19 2 1 1 2 2 1 2 2 1 5 4 3 1 2 3 2 1 2 0 2 1 4 4 4 3 5 2 2 1 1 1 4 3 2 4 2 3 1 1 1 1 0 4 8 9 7 8 9 10 11 14 14 12 10 5 5 10 9 10 10 12 13 12 11 11 12 12 12 9
28 27 28 27 26 25 23 21 20 18 12 3 4 3 5 10 8 6 2 1 1 1 1 1 1 1 4 5 3 5 2 1 1 1 1 3 0 2 0 2 3 3 4 3 1 3 2 4 3 0 4 4 2 5 2 1 0 1 2 4 5 8 9 9 8 8 5 5 5 8 9 8 9 9 8 9 9 10 10 10 11 13 12 12 12 11 10
27 28 28 27 25 21 22 17 6 1 2 3 4 5 2 3 6 7 7 1 1 2 2 2 0 1 4 5 1 4 0 2 0 0 2 2 1 1 1 3 4 5 2 2 4 1 2 0 3 5 0 2 4 1 1 4 3 3 5 5 4 9 9 9 3 4 6 7 9 9 11 12 13 10 10 10 10 11 11 11 11 12 12 11 11 11 11
28 29 27 26 26 15 5 0 3 0 0 2 5 7 16 16 8 4 4 3 2 1 1 3 0 2 2 1 1 2 1 1 2 0 0 0 3 2 3 2 4 1 0 4 0 3 2 1 2 1 2 3 2 3 5 7 7 5 6 7 5 7 8 10 8 5 6 8 10 10 11 10 11 10 10 10 10 9 11 13 12 10 11 11 11 11 11
29 28 28 20 6 2 1 3 1 3 1 6 15 21 23 13 1 4 2 0 1 1 2 1 1 4 5 4 1 4 3 1 1 1 5 3 1 2 3 2 1 1 4 3 2 3 1 1 6 2 3 1 1 3 7 8 8 8 6 6 3 3 7 7 9 10 10 9 10 10 10 9 8 8 9 10 10 10 12 12 10 12 13 14 12 12 13
29 25 7 1 1 1 1 2 1 7 16 18 11 4 4 5 1 2 2 0 2 1 1 1 4 4 1 1 2 3 1 2 2 1 1 0 1 1 0 2 1 2 1 0 1 2 2 4 2 2 1 1 1 3 5 6 5 5 5 4 4 6 6 7 9 12 10 8 7 10 10 10 9 8 11 11 11 11 9 7 8 9 10 11 11 12 11
15 5 3 2 1 2 1 1 9 21 13 6 1 0 2 0 1 1 2 1 1 1 2 3 5 4 2 1 3 3 2 1 2 2 1 1 2 2 1 2 2 3 1 1 3 3 2 2 1 2 0 1 2 2 3 7 4 5 5 5 6 7 8 7 10 13 13 11 10 10 10 12 14 11 8 8 7 7 7 9 9 10 10 10 11 11 12
5 7 4 4 1 3 6 7 13 11 2 0 1 2 1 1 2 2 1 1 1 2 1 2 4 4 6 3 2 1 1 2 2 1 1 1 0 1 1 1 1 2 1 1 3 2 4 2 0 2 2 2 3 2 4 5 6 4 5 5 7 9 10 10 8 7 7 5 5 5 5 6 6 6 7 8 9 10 9 10 10 10 10 11 11 12 12
4 3 4 2 5 5 7 11 8 1 0 1 1 1 0 1 2 1 0 0 1 2 2 3 2 2 2 2 2 1 3 1 1 2 3 1 2 2 2 0 1 1 0 0 1 2 2 2 1 3 7 5 5 5 4 4 4 4 6 6 8 9 10 9 8 7 8 7 6 5 7 6 6 6 6 7 8 9 9 10 9 10 12 12 13 12 10
4 4 5 7 8 8 7 3 0 0 0 0 2 1 1 2 1 2 1 2 2 1 2 0 1 1 1 1 1 2 1 1 1 1 1 0 1 1 0 0 1 1 1 3 1 2 2 1 2 2 4 5 5 5 5 5 4 5 6 7 8 9 10 10 8 5 8 8 6 6 5 7 7 6 6 7 9 9 9 9 10 10 13 11 11 10 9
17 14 6 5 3 1 1 1 1 1 1 0 2 1 1 0 2 3 1 1 1 1 4 1 0 1 1 2 2 0 2 0 0 1 1 1 1 2 1 1 1 1 1 0 1 1 1 1 3 6 5 7 7 7 6 7 5 5 6 7 7 8 9 8 8 7 6 8 7 6 6 8 7 7 7 8 9 10 8 8 11 10 10 9 9 9 9
5 2 2 1 1 3 1 1 1 1 1 0 2 2 1 1 3 0 0 3 1 1 3 3 2 2 3 2 2 0 1 2 2 2 1 0 1 0 1 0 0 3 0 1 0 1 3 2 6 6 7 6 6 6 6 6 5 5 6 6 7 7 7 6 5 6 5 5 6 6 6 7 7 7 9 9 11 12 10 9 8 10 8 8 9 9 9
1 1 0 0 0 2 1 2 1 1 2 2 2 2 2 4 4 2 4 4 1 3 3 2 2 3 2 2 2 1 1 1 1 2 1 0 1 0 1 0 1 1 1 1 1 1 1 1 1 4 7 8 8 8 7 6 7 8 8 6 6 6 7 7 6 7 6 7 8 8 7 7 9 9 10 11 10 11 12 10 8 9 8 9 9 9 9
1 0 0 2 3 2 1 1 0 1 2 2 2 4 3 5 3 4 6 2 3 7 8 6 1 1 1 1 5 2 0 2 1 1 0 1 2 0 1 0 1 1 1 1 0 1 4 5 7 9 10 10 10 8 8 7 7 6 9 9 7 7 7 7 6 6 7 7 7 9 8 8 10 10 11 10 9 9 10 10 9 9 8 9 10 11 9
1 1 1 0 0 3 1 1 2 2 1 1 2 4 5 6 6 6 3 1 4 7 6 5 5 6 6 2 0 2 1 1 1 1 2 1 0 1 1 1 1 0 1 1 2 2 3 5 6 7 8 9 9 9 9 7 6 8 8 7 7 7 7 7 7 7 7 8 8 9 8 9 9 10 10 9 8 8 9 10 10 9 10 11 10 10 10
1 2 0 1 3 1 2 4 3 3 2 3 4 2 3 2 3 7 6 3 5 4 7 1 3 0 1 2 3 3 2 0 1 1 1 1 1 2 2 1 1 1 1 2 4 4 4 4 8 8 8 10 11 11 9 8 8 9 8 8 8 8 8 9 8 8 9 10 10 10 9 9 10 10 11 10 8 8 9 10 10 8 9 9 9 10 11
2 0 0 1 1 1 2 3 4 3 6 6 5 5 6 6 7 8 8 3 4 7 7 2 3 3 1 1 2 1 0 0 2 2 1 2 1 2 1 1 0 1 4 4 4 4 6 6 7 8 8 9 10 10 9 8 9 10 10 10 9 9 9 10 10 10 10 11 10 10 9 9 10 10 10 9 10 8 9 10 9 8 7 9 10 11 10
1 1 1 0 2 4 5 3 1 4 6 7 7 7 6 5 6 8 4 5 5 3 1 2 2 3 1 1 0 1 0 1 2 0 2 0 1 1 1 1 3 3 3 2 3 5 4 5 8 8 9 10 11 11 10 7 7 8 8 8 7 8 9 11 10 10 10 10 10 10 9 9 10 9 11 11 10 9 8 9 9 9 7 8 11 11 11
1 1 3 3 4 5 2 2 1 5 8 7 6 6 4 6 5 8 7 4 2 2 2 3 2 2 1 1 1 1 2 1 3 2 3 2 1 2 3 3 4 6 7 6 6 5 6 8 10 10 9 10 10 10 10 9 8 7 7 8 8 9 8 10 10 10 8 9 9 9 9 10 10 10 10 9 9 9 9 8 8 8 8 8 10 11 11
0 0 2 3 2 3 4 5 3 6 7 7 4 4 3 6 5 8 8 8 0 2 3 1 2 1 1 1 3 2 0 2 0 1 0 2 2 2 3 6 7 7 8 7 6 4 5 6 9 12 12 12 11 9 8 7 8 8 8 8 9 10 9 9 9 9 9 8 9 9 8 8 9 9 9 10 10 10 10 9 7 7 7 8 8 10 12
Wind_Direction
355 357 358 3 4 6 8 8 10 11 5 1 341 261 74 14 202 241 337 172 151 210 318 196 209 227 239 285 282 277 265 265 277 289 311 320 306 204 216 230 293 258 0 10 356 351 328 181 192 169 184 212 211 207 200 202 203 199 227 168 218 121 156 185 266 269 283 295 210 175 148 134 120 200 121 121 172 182 163 159 182 122 166 105 351 102 220
356 357 360 1 2 5 6 7 8 9 12 358 310 271 54 83 320 0 116 143 281 269 44 309 274 274 281 277 274 264 261 268 291 303 302 303 308 282 247 259 190 221 315 172 310 237 35 2 155 221 214 221 219 223 212 192 211 188 203 175 195 186 257 150 150 45 26 345 355 299 282 176 170 164 207 162 152 154 204 118 122 112 209 168 128 202 207
357 359 358 359 2 3 2 1 360 358 0 358 342 8 309 300 11 40 308 248 197 242 292 352 326 321 310 307 289 295 271 266 298 299 288 284 282 301 273 259 168 277 239 248 253 227 163 291 287 190 219 253 217 211 216 204 210 201 183 172 165 166 195 114 148 156 161 188 194 209 219 211 253 148 124 137 162 164 98 164 164 139 239 130 133 117 276
357 357 356 358 360 0 358 353 349 351 351 348 280 321 348 304 105 -0 341 351 232 264 281 292 292 304 309 307 278 268 298 296 285 276 281 264 253 235 249 282 178 180 46 19 311 312 216 142 263 16 312 305 245 205 203 199 210 205 170 166 127 161 162 114 153 158 184 199 211 234 138 145 187 198 155 153 125 174 132 126 144 184 196 144 216 152 140
357 356 356 354 355 356 355 353 348 343 338 319 207 256 169 315 102 146 187 175 243 269 288 261 222 237 259 283 311 316 315 316 311 255 278 282 210 233 199 229 26 296 56 348 329 262 298 4 94 339 353 262 272 223 192 196 206 196 173 170 98 92 191 241 127 126 169 186 211 217 159 178 184 140 190 157 130 145 152 158 210 173 117 222 47 150 135
354 355 355 354 354 355 354 353 347 341 334 341 176 102 205 69 266 233 203 163 217 219 268 229 243 252 255 253 265 277 295 320 282 299 235 301 352 42 337 3 25 37 30 42 42 313 345 28 23 345 353 317 335 335 194 187 199 186 175 170 153 142 166 237 89 103 101 131 69 80 73 70 73 129 179 170 143 124 181 226 205 146 168 179 166 169 155
354 356 355 354 354 354 353 353 352 345 339 340 185 46 260 164 253 233 283 192 245 187 227 264 256 253 223 256 223 270 267 290 305 302 323 349 331 26 34 339 41 43 38 70 119 344 45 338 353 32 320 5 345 330 347 344 293 178 139 177 164 123 171 165 127 85 50 56 73 70 89 67 53 33 8 323 172 168 144 70 1 173 160 146 155 148 104
353 355 356 355 355 354 353 355 353 347 344 2 139 218 296 33 24 325 345 279 274 260 285 249 225 234 267 269 254 239 279 308 341 333 16 338 310 350 63 3 23 56 46 68 99 264 165 176 36 309 33 345 322 285 158 259 335 24 171 178 257 128 247 184 121 75 29 13 69 71 81 92 75 37 29 43 81 74 91 108 99 81 68 114 124 120 112
352 353 355 355 355 354 353 353 353 352 353 23 2 333 35 307 228 291 330 328 265 267 332 318 294 306 297 183 277 318 310 12 343 303 244 216 256 343 305 310 337 344 335 289 241 216 184 176 162 212 167 93 271 80 295 326 333 8 22 113 212 95 189 50 86 87 4 337 70 95 93 84 83 42 18 9 356 107 166 118 211 120 133 129 119 116 133
350 352 354 354 355 353 353 352 350 357 352 353 321 291 345 302 268 241 152 257 320 7 287 296 37 287 238 246 271 343 305 318 342 333 296 239 227 243 305 326 341 307 1 271 248 235 188 199 218 192 224 208 232 226 241 347 59 16 108 347 108 131 119 79 99 90 290 278 295 113 85 68 27 349 338 328 350 100 85 61 65 144 136 129 151 187 156
349 351 352 354 354 354 353 350 349 358 9 21 332 317 334 353 339 349 26 346 310 5 322 266 124 256 306 265 280 272 265 279 299 206 279 325 296 252 354 331 347 259 234 234 227 214 216 202 222 172 253 242 121 48 28 29 35 41 103 71 344 75 115 120 121 111 226 288 307 350 64 91 222 280 291 196 201 252 111 89 108 98 54 186 173 137 134
349 350 351 354 354 354 352 350 346 348 5 280 280 274 244 296 301 253 103 356 280 278 308 280 248 269 266 277 276 281 290 281 258 222 253 273 284 302 302 294 214 291 248 236 327 304 274 224 151 188 203 16 65 47 34 28 14 14 45 114 110 93 91 72 92 97 178 319 44 58 154 227 279 345 9 96 96 109 96 72 36 -0 108 110 117 132 142
347 347 349 351 353 354 353 349 345 343 348 305 246 278 272 348 287 286 239 160 277 300 316 294 264 259 264 271 264 251 253 251 252 238 234 241 279 282 226 225 210 236 238 236 332 6 33 356 341 50 338 30 18 54 35 16 17 9 20 43 112 117 103 143 47 81 51 47 38 151 228 275 356 20 46 85 100 145 91 45 16 355 144 131 130 136 133
346 346 346 349 352 353 352 350 346 341 339 338 292 259 268 272 295 300 314 345 288 243 238 287 279 284 310 311 296 261 232 241 243 225 225 225 231 256 269 226 238 229 208 137 55 60 24 27 34 18 353 8 4 30 351 349 22 12 357 12 40 118 105 94 84 11 123 123 50 64 352 323 31 70 230 178 151 219 287 145 264 323 266 144 135 135 134
344 344 345 348 349 352 351 350 348 343 338 332 298 266 244 227 223 242 296 303 299 291 230 223 258 286 306 313 315 311 288 311 358 288 219 218 235 229 221 258 291 328 37 53 1 50 133 98 42 47 346 44 237 268 326 18 313 356 349 4 56 351 118 216 107 329 117 128 85 68 60 231 222 226 234 223 194 142 129 96 13 302 288 173 142 145 144
342 343 343 345 346 348 350 349 347 343 334 333 299 289 263 232 229 252 268 209 275 298 258 218 238 295 313 309 314 339 339 326 330 323 328 302 244 297 267 258 279 349 357 79 106 89 53 91 138 96 154 178 216 51 320 263 358 312 335 16 62 43 69 94 106 148 73 70 122 181 172 245 189 201 208 182 156 150 153 79 218 224 192 184 152 147 150
341 340 342 342 342 343 344 347 347 344 332 335 318 283 277 194 203 229 208 230 215 247 271 289 292 252 267 280 328 5 5 345 1 48 322 318 304 304 303 287 277 177 165 74 18 63 42 52 82 109 63 143 137 185 254 69 47 357 315 5 45 47 4 41 57 96 145 140 118 198 198 195 248 189 179 165 153 177 69 213 239 176 182 178 167 156 154
339 339 339 339 339 339 340 344 346 345 341 333 314 304 274 255 217 243 248 222 260 278 265 235 137 310 242 219 139 213 257 271 303 31 270 283 325 307 299 344 7 265 135 109 51 70 67 105 126 145 151 260 157 61 176 165 99 206 216 38 52 34 26 46 146 145 141 117 180 5 312 284 229 179 171 137 146 85 160 205 240 169 164 172 169 160 153
338 337 338 337 337 336 337 339 343 344 343 338 327 291 251 236 220 201 273 246 234 271 263 271 279 240 228 265 272 247 200 219 177 107 313 359 284 246 271 265 210 70 4 141 73 101 116 278 52 122 122 284 102 178 182 98 224 214 184 86 47 22 92 342 61 97 138 169 117 207 233 233 171 170 158 165 123 189 214 235 164 152 165 166 164 157 156
336 336 336 335 334 334 335 336 339 343 343 343 337 280 272 267 243 199 204 234 225 260 288 291 225 253 213 217 225 238 251 287 211 121 125 199 258 4 13 36 324 76 9 59 55 189 104 183 216 130 67 149 222 158 60 286 299 166 232 237 128 191 104 157 137 169 63 48 77 32 236 244 142 143 100 187 157 233 198 120 132 157 155 158 161 157 155
333 333 334 332 332 332 333 333 334 337 340 339 341 319 315 282 199 224 226 235 315 314 300 236 240 302 303 267 245 227 162 170 192 203 226 200 213 104 78 200 227 100 200 133 147 230 149 157 218 166 198 135 202 87 172 156 56 18 136 214 139 216 97 164 260 183 143 147 163 198 220 217 164 157 177 198 197 156 142 134 128 147 156 156 151 152 153
331 331 331 330 328 329 329 329 330 329 334 335 339 290 268 267 291 262 208 202 231 215 235 293 309 288 275 266 261 233 192 173 197 167 156 321 300 159 216 214 220 176 207 115 52 29 13 177 71 90 143 91 37 144 174 97 157 259 348 88 85 228 154 184 160 206 131 197 222 282 310 283 352 107 147 100 130 140 147 142 149 150 162 150 147 150 141
329 329 328 327 326 325 326 325 325 324 326 329 333 193 259 299 301 316 240 204 240 263 277 282 292 280 267 257 223 199 193 159 149 154 154 122 327 294 240 116 305 222 282 116 169 161 193 126 189 161 98 169 151 106 49 114 175 230 138 297 180 358 108 113 88 167 183 53 45 353 20 50 59 43 85 125 114 97 126 131 130 144 139 152 151 144 139
328 328 326 325 324 324 323 323 322 322 320 318 310 273 280 247 269 305 245 218 229 304 303 245 11 333 335 2 335 349 30 86 176 192 179 126 108 314 319 251 191 11 283 241 176 139 197 119 187 144 148 218 97 106 138 185 247 194 93 17 10 256 218 60 113 159 76 301 325 61 89 81 90 89 56 52 72 129 134 130 132 137 138 128 129 134 139
328 327 326 324 323 322 322 323 322 322 321 319 315 254 254 283 228 211 162 180 304 105 255 308 313 240 302 316 314 352 341 337 67 147 148 121 133 147 193 246 196 169 246 251 106 65 46 101 9 52 115 214 113 192 215 111 141 139 87 210 120 270 157 79 91 80 118 188 176 116 86 75 94 114 116 105 101 90 94 113 121 123 121 124 130 131 132
327 326 325 323 322 321 322 321 322 319 320 318 316 290 255 237 226 167 243 277 221 128 260 302 282 302 342 0 341 278 294 23 20 38 52 211 188 173 199 297 326 317 207 56 84 135 148 79 107 118 113 265 106 137 174 210 148 119 129 210 201 161 79 149 171 103 80 71 96 119 87 61 54 67 74 115 127 121 117 119 123 124 126 128 127 133 139
325 325 324 323 322 321 320 321 321 321 320 319 315 256 235 254 220 195 194 207 66 349 33 265 274 296 348 324 279 314 322 12 15 23 17 17 35 31 70 87 158 9 71 36 18 122 74 91 87 66 153 135 102 122 125 74 98 108 87 334 50 73 83 146 105 117 169 182 182 154 131 176 153 126 135 126 122 121 125 124 126 132 135 138 137 138 141
324 323 323 322 321 320 320 320 320 321 323 322 306 265 209 221 224 204 235 178 97 206 234 267 297 293 307 279 273 316 311 9 39 23 21 18 28 32 41 48 81 67 15 71 12 16 26 69 74 244 50 324 57 37 17 114 65 46 43 337 166 133 183 154 162 166 197 201 167 158 98 96 127 140 136 126 126 126 131 137 137 137 139 141 141 143 143
322 321 321 320 319 318 317 317 317 322 326 327 309 310 150 233 261 265 253 180 105 112 243 258 296 339 24 287 298 355 314 12 40 20 28 17 26 25 38 43 48 74 84 72 97 102 96 135 182 82 41 202 95 139 36 52 59 95 266 286 236 231 180 176 140 84 34 119 138 141 128 136 146 137 130 129 130 127 127 132 134 138 141 142 139 143 145
321 320 319 319 317 315 314 313 315 322 331 328 333 26 27 328 227 181 271 57 106 114 35 350 353 262 288 310 299 304 321 345 38 35 29 16 19 20 22 37 16 40 86 111 133 74 261 108 320 318 342 30 114 165 77 170 78 265 309 323 320 69 75 49 162 141 152 140 119 110 111 116 125 129 125 126 135 130 132 137 140 138 139 140 139 142 146
320 319 317 315 313 311 310 309 310 318 337 329 8 43 39 2 292 193 89 33 64 113 162 145 238 276 336 263 250 286 289 0 53 35 337 340 315 345 323 78 27 73 41 2 43 74 80 16 23 332 321 38 104 84 150 107 99 315 308 319 325 117 93 86 59 102 117 112 105 103 107 117 117 97 100 124 129 129 128 133 136 136 138 137 140 143 147
319 317 315 312 310 308 305 304 305 315 305 229 169 171 179 197 227 241 333 1 117 76 102 339 334 346 271 314 286 251 135 207 71 51 338 23 1 10 7 72 85 37 122 112 183 47 36 259 96 328 31 341 71 90 66 75 117 214 317 359 62 102 110 104 100 100 109 116 109 95 101 119 144 141 156 153 134 135 133 135 135 135 137 137 140 143 145
317 315 312 309 307 304 300 298 298 307 266 257 261 273 274 273 272 274 332 65 71 206 148 90 209 239 310 257 307 322 17 26 16 48 315 304 260 47 356 351 12 20 340 76 358 101 211 99 348 47 322 27 77 88 82 55 211 253 266 69 97 109 104 104 107 113 124 131 133 143 158 155 153 125 129 132 131 133 135 136 138 137 137 140 141 141 140
316 313 310 306 302 300 296 293 299 298 284 260 319 270 256 229 248 253 167 138 192 259 74 128 319 342 271 311 34 285 32 103 287 71 26 299 194 67 289 26 353 74 332 88 267 71 1 64 56 319 344 19 42 76 58 331 271 139 83 79 100 100 106 105 111 111 98 69 63 106 119 125 124 121 123 127 132 136 136 138 143 143 145 146 147 148 141
315 311 306 304 299 292 294 298 314 4 264 274 265 244 268 235 167 159 144 135 35 336 9 313 120 26 341 350 22 273 290 82 49 126 134 276 30 138 34 60 332 76 300 83 38 72 57 8 177 63 297 317 44 60 207 186 191 125 104 97 104 109 100 94 61 98 102 106 106 108 117 125 128 136 143 142 145 150 148 146 146 148 148 151 149 145 143
314 310 306 300 300 302 308 138 160 168 322 270 240 290 303 299 290 222 189 200 149 156 158 247 71 208 162 253 301 271 10 33 271 11 219 26 2 15 91 108 57 295 263 73 131 4 35 301 71 15 298 64 220 187 176 160 152 151 141 138 165 142 148 142 140 116 109 117 119 122 127 133 136 142 144 150 152 152 147 146 149 149 146 144 145 143 141
314 308 303 300 297 81 319 227 243 114 262 275 276 283 283 285 310 98 98 112 275 124 173 182 345 244 180 225 240 281 68 289 328 34 340 49 202 284 53 44 99 328 38 3 12 68 327 56 96 69 12 118 268 175 150 159 150 150 156 161 166 81 101 117 128 122 118 122 126 133 136 140 136 142 145 150 155 147 151 155 152 148 152 147 144 144 146
312 305 298 356 28 16 322 323 54 316 325 305 315 306 347 32 294 331 6 38 268 95 303 95 239 252 278 119 251 251 75 272 57 133 302 234 75 318 50 103 221 85 50 279 268 187 73 35 61 117 323 283 282 147 155 154 157 144 146 146 139 130 132 135 133 128 130 133 143 151 147 145 147 156 150 153 153 151 149 138 135 135 135 137 139 140 137
312 308 8 353 77 245 207 260 344 330 315 265 109 74 307 345 63 350 249 228 35 270 266 151 242 216 138 69 274 282 143 112 28 25 103 273 104 297 10 93 298 70 343 38 292 56 66 343 13 40 311 305 78 164 175 147 145 145 145 139 134 140 138 146 146 150 162 172 167 164 160 160 160 159 151 139 130 124 134 138 134 133 134 134 136 137 138
358 11 360 332 316 262 297 305 335 318 304 38 326 107 233 309 107 267 288 84 303 280 105 243 219 188 183 191 142 308 314 64 55 60 169 301 305 134 262 90 265 93 190 128 247 35 115 137 270 81 262 281 217 217 174 153 146 166 131 129 137 144 146 153 159 155 141 131 138 139 138 143 143 140 139 136 137 136 140 142 140 135 135 138 139 139 144
15 341 340 311 289 318 308 318 319 268 26 48 8 357 63 315 276 199 66 271 187 240 199 187 348 359 329 66 91 137 286 90 182 136 115 144 247 79 57 130 227 90 244 214 270 71 76 85 82 176 222 214 194 195 175 137 155 158 129 141 143 145 149 149 144 141 133 133 138 141 153 134 123 128 132 135 130 135 143 142 143 144 139 139 143 148 150
281 267 257 284 285 281 299 302 193 23 356 158 127 260 223 221 304 350 130 151 245 250 308 164 285 169 251 177 189 142 303 216 111 101 99 49 297 104 212 261 20 113 212 238 153 68 80 123 191 256 247 205 196 178 163 159 175 137 143 147 147 151 150 147 145 146 141 144 151 157 142 119 125 131 140 134 132 136 140 140 141 143 144 148 144 140 139
286 275 250 267 302 291 213 346 281 118 138 255 54 335 312 172 217 179 265 260 289 120 259 201 191 177 317 56 31 280 182 232 82 327 66 233 289 54 79 19 55 46 225 307 82 112 107 199 219 244 204 178 182 172 178 167 173 147 156 155 150 152 148 148 147 150 148 144 148 148 137 130 134 144 140 135 133 137 141 143 146 148 145 141 140 139 139
276 198 169 200 304 277 102 268 272 76 301 122 131 198 226 277 306 9 63 265 250 282 246 159 250 122 228 298 149 320 4 356 42 72 23 300 84 321 57 334 231 243 45 43 58 149 216 213 207 206 179 168 172 172 171 164 153 142 151 166 158 147 143 138 131 132 146 137 134 145 139 134 132 140 142 144 146 144 147 147 151 146 142 133 136 145 147
10 8 244 339 285 262 77 298 312 124 194 233 155 199 166 182 242 189 200 245 130 235 307 18 147 120 196 263 39 351 124 195 297 96 249 58 39 347 103 259 251 31 85 247 320 334 357 279 254 153 164 171 176 177 172 166 157 156 163 168 165 149 142 146 152 152 153 147 152 148 152 147 140 149 154 154 154 147 146 152 154 141 142 140 144 142 154
13 188 73 87 313 301 150 243 135 258 283 156 203 195 183 239 183 241 253 217 286 311 317 271 281 96 176 254 136 211 0 91 62 236 169 71 98 263 247 264 68 62 3 38 0 223 222 231 195 186 179 171 171 175 172 172 166 148 143 169 179 163 162 157 165 157 156 152 150 147 153 154 148 150 154 153 150 151 150 150 152 147 143 140 149 154 161
304 290 180 207 170 271 114 180 240 204 188 258 231 186 193 225 215 220 236 278 285 264 277 255 178 182 157 222 101 341 26 71 122 266 67 56 165 261 3 88 289 214 137 280 256 255 266 250 208 188 170 167 168 173 175 169 165 157 163 162 166 166 164 167 169 163 164 153 149 147 151 154 148 150 145 144 152 160 155 155 158 148 145 158 159 153 156
288 265 80 143 231 213 182 242 233 283 242 209 251 254 243 233 320 303 277 234 240 287 275 161 114 352 48 302 85 185 220 63 86 302 145 172 31 40 12 29 303 254 180 176 235 222 233 227 183 184 178 170 167 174 178 171 173 170 163 163 163 162 168 166 173 172 163 157 155 155 152 152 147 147 151 153 157 165 161 161 160 156 151 149 150 155 158
234 282 188 215 227 273 260 265 354 307 289 335 331 339 340 336 294 277 277 259 239 244 223 141 180 97 233 253 104 73 289 338 101 242 17 36 98 210 146 227 293 308 270 183 210 219 226 205 171 158 157 164 172 175 180 178 176 174 172 169 168 167 166 165 167 167 165 159 159 154 151 150 148 150 149 148 153 172 169 164 160 164 149 149 159 161 164
197 292 308 265 345 298 272 302 19 315 323 337 3 337 327 323 304 292 274 281 267 199 92 19 48 97 212 113 325 22 244 250 146 51 65 128 196 191 82 306 231 196 257 257 231 245 223 160 141 153 165 166 171 176 178 184 174 173 174 168 160 160 167 165 162 161 162 158 158 155 152 147 150 154 155 159 164 167 167 168 170 171 156 157 162 165 169
235 175 233 179 180 230 38 348 329 312 321 313 312 303 319 299 291 294 307 262 227 52 46 162 209 111 105 40 73 85 246 169 78 166 160 196 203 121 168 201 241 216 229 237 237 232 171 165 160 164 169 172 172 175 177 175 172 171 168 162 161 161 165 164 161 157 157 157 155 149 154 158 158 159 163 154 151 157 169 182 184 178 163 161 169 169 174
128 214 261 281 273 257 220 246 257 241 240 256 279 262 293 290 297 293 309 309 4 144 226 232 104 83 73 168 218 191 45 51 116 80 40 278 152 147 215 203 234 235 224 247 259 211 183 175 166 164 171 175 176 168 160 161 163 163 164 162 161 160 163 165 164 161 159 160 159 157 161 157 155 156 151 149 153 158 171 191 202 188 167 163 176 178 178